[[{"header":{"parameterUnit":"m.s-1","parameterCategory":1,"la1":30.2991,"la2":30.254,"lo1":-89.0895,"lo2":-89.0444,"dy":0.0017,"dx":0.0017,"nx":28,"ny":28,"refTime":"2024-08-23T09:00:00:Z","depth":0,"parameterNumber":2,"parameterNumberName":"U-component_of_WINDS"},"data":[0,0,0,0,0,0,0,0,0,0,0,0,0,0,0,0,0,0,0,0,0,0,0,0,0,0,0,0,0,0,0,0,0,0,0,0,0,0,0,0,0,0,0,0,0,0,0,0,0,0,0,0,0,0,0,0,0,0,-3.3993,-3.3993,0,-3.4043,-3.4044,-3.4044,-3.4004,-3.4002,-3.4,-3.3999,-3.4049,-3.4052,-3.4055,0,0,0,0,0,0,0,0,0,0,0,0,0,-3.3861,-3.3864,-3.3993,-3.3993,-3.3994,-3.4043,-3.4044,-3.4044,-3.4004,-3.4002,-3.4,-3.3998,-3.4048,-3.4052,-3.4055,0,0,0,0,0,0,0,0,0,0,0,0,0,-3.3916,-3.3865,-3.3992,-3.398,-3.3979,-3.4043,-3.4044,-3.4045,-3.4004,-3.4002,-3.3999,-3.3997,-3.4047,-3.4051,-3.4056,-3.4135,0,0,-3.4069,-3.4071,0,0,0,0,0,0,0,0,-3.3913,-3.392,-3.3981,-3.3981,-3.398,-3.4014,-3.4016,-3.4075,-3.4005,-3.3995,-3.3998,-3.3995,-3.404,-3.4045,-3.406,-3.4137,-3.4139,-3.407,-3.4072,-3.4074,-3.4075,0,0,0,0,0,0,0,-3.3909,-3.3918,-3.4012,-3.3982,-3.3981,-3.3971,-3.3976,-3.4027,-3.4031,-3.3995,-3.3993,-3.3999,-3.4039,-3.4055,-3.406,-3.414,-3.407,-3.4073,-3.4076,-3.4078,-3.4285,-3.4288,0,0,0,0,0,0,-3.3906,-3.3915,-3.4011,-3.4014,-3.3939,-3.3976,-3.3981,-3.4006,-3.403,-3.4032,-3.4001,-3.3997,-3.4049,-3.4055,-3.4062,-3.4156,-3.4074,-3.4078,-3.4081,-3.4283,-3.4286,-3.4289,0,0,0,0,0,0,-3.3904,-3.3915,-3.4009,-3.3964,-3.3975,-3.3981,-3.4009,-3.4008,-3.4025,-3.4035,-3.4035,-3.4017,-3.4047,-3.4056,-3.4117,-3.4157,-3.408,-3.4084,-3.4279,-3.4284,-3.4288,-3.4344,0,0,0,0,0,0,-3.39,-3.3915,-3.3944,-3.3965,-3.3978,-3.4063,-3.4011,-3.4011,-3.4033,-3.4028,-3.405,-3.4051,-3.4046,-3.4111,-3.4122,-3.4162,-3.4088,-3.4276,-3.4281,-3.4286,-3.4339,-3.435,-3.436,0,0,0,0,0,-3.3896,-3.3958,-3.3946,-3.3958,-3.4015,-3.4065,-3.4073,-3.4066,-3.4036,-3.4066,-3.4073,-3.4051,-3.4152,-3.4117,-3.4129,-3.4171,-3.4273,-3.428,-3.4286,-3.4334,-3.4348,-3.4359,0,0,0,0,0,0,-3.3941,-3.396,-3.3947,-3.4018,-3.4041,-3.4058,-3.4096,-3.408,-3.4111,-3.4105,-3.4095,-3.41,-3.4165,-3.4174,-3.4136,-3.425,-3.4208,-3.4217,-3.424,-3.4253,-3.4263,-3.4259,-3.4092,0,0,0,0,0,-3.396,-3.3999,-3.4014,-3.4075,-3.4087,-3.409,-3.4112,-3.4105,-3.4127,-3.4136,-3.4147,-3.417,-3.4206,-3.4231,-3.4265,-3.4341,-3.4345,-3.4376,-3.4386,-3.4395,-3.4402,-3.4443,-3.4457,-3.431,-3.431,-3.431,0,0,-3.3998,-3.4014,-3.4039,-3.4085,-3.4101,-3.4142,-3.4098,-3.4143,-3.4173,-3.4143,-3.4201,-3.4211,-3.4235,-3.4304,-3.4335,-3.4314,-3.4444,-3.4403,-3.441,-3.4412,-3.4451,-3.4465,-3.4477,-3.4315,-3.4314,-3.4313,0,0,-3.4089,-3.4105,-3.4157,-3.4175,-3.4201,-3.4203,-3.4216,-3.4236,-3.4241,-3.43,-3.4278,-3.4314,-3.4378,-3.4396,-3.4414,-3.4514,-3.4495,-3.4526,-3.4579,-3.4619,-3.4631,-3.4641,-3.4676,-3.4688,-3.4534,-3.4534,-3.4534,0,-3.4132,-3.4193,-3.4186,-3.4233,-3.4254,-3.423,-3.4283,-3.4301,-3.4336,-3.4351,-3.4328,-3.4408,-3.4423,-3.4496,-3.452,-3.4536,-3.455,-3.4522,-3.463,-3.464,-3.4649,-3.4682,-3.4696,-3.4537,-3.4537,-3.4537,-3.4536,0,-3.4246,-3.4289,-3.4329,-3.4364,-3.439,-3.444,-3.444,-3.4467,-3.4459,-3.4463,-3.4524,-3.4541,-3.4579,-3.4596,-3.4588,-3.4668,-3.4655,-3.4631,-3.4588,-3.4667,-3.4698,-3.471,-3.4542,-3.4541,-3.454,-3.4539,0,0,-3.4364,-3.4397,-3.4411,-3.4427,-3.4455,-3.4488,-3.4537,-3.4575,-3.4598,-3.4624,-3.4665,-3.4721,-3.4699,-3.4719,-3.4713,-3.4749,-3.4827,-3.4721,-3.4721,-3.4739,-3.4916,-3.4933,-3.4947,-3.4815,-3.4817,-3.4819,-3.4914,0,-3.4455,-3.4541,-3.4537,-3.4617,-3.4656,-3.4635,-3.4678,-3.47,-3.4706,-3.474,-3.4747,-3.4786,-3.4755,-3.4767,-3.4802,-3.481,-3.4862,-3.4803,-3.4852,-3.4854,-3.4845,-3.4964,-3.4981,-3.5069,-3.4926,-3.4928,-3.4929,0,-3.4572,-3.4602,-3.4687,-3.4709,-3.4726,-3.4764,-3.4799,-3.4832,-3.4857,-3.4859,-3.4883,-3.4872,-3.4922,-3.488,-3.4949,-3.4909,-3.493,-3.4937,-3.494,-3.4943,-3.4895,-3.4968,-3.5097,-3.511,-3.4948,-3.4947,-3.4946,0,-3.4648,-3.4711,-3.4769,-3.4784,-3.4812,-3.484,-3.4853,-3.4875,-3.4898,-3.4929,-3.4944,-3.498,-3.4999,-3.5027,-3.5026,-3.4996,-3.5097,-3.5054,-3.5099,-3.5099,-3.5119,-3.5118,-3.5252,-3.5135,-3.5135,-3.5135,-3.5135,0,-3.4749,-3.4801,-3.4804,-3.484,-3.4898,-3.4894,-3.4951,-3.4961,-3.4982,-3.5019,-3.5004,-3.5039,-3.5037,-3.5073,-3.5073,-3.513,-3.5139,-3.5142,-3.5141,-3.5142,-3.5142,-3.5154,-3.5147,-3.5138,-3.5138,-3.5137,-3.5136,0,-3.4843,-3.4847,-3.491,-3.4932,-3.4939,-3.498,-3.4999,-3.5034,-3.5039,-3.5087,-3.5098,-3.5107,-3.5149,-3.5151,-3.52,-3.52,-3.5269,-3.5262,-3.526,-3.5259,-3.5303,-3.5298,-3.5448,-3.5467,-3.534,-3.5341,-3.5342,0,-3.4906,-3.4946,-3.4973,-3.4997,-3.5012,-3.5051,-3.5075,-3.5073,-3.5098,-3.513,-3.5161,-3.5201,-3.5233,-3.5302,-3.5312,-3.535,-3.5343,-3.5393,-3.5348,-3.5349,-3.5342,-3.5339,-3.5343,-3.5401,-3.5402,-3.5403,-3.5404,0,-3.5018,-3.5018,-3.5053,-3.5089,-3.5118,-3.5147,-3.5173,-3.5194,-3.5195,-3.5225,-3.5268,-3.5293,-3.5343,-3.5384,-3.542,-3.5434,-3.5419,-3.5419,-3.5431,-3.5432,-3.5429,-3.543,-3.5283,-3.5415,-3.5414,-3.5413,-3.5412,-3.5412,-3.5098,-3.5132,-3.5156,-3.5196,-3.5216,-3.5241,-3.5275,-3.5285,-3.5321,-3.5361,-3.5359,-3.5406,-3.5431,-3.5479,-3.5496,-3.5533,-3.5516,-3.5534,-3.5538,-3.5542,-3.5546,-3.5425,-3.554,-3.554,-3.5539,-3.5539,-3.5539,0,-3.5207,-3.5222,-3.5259,-3.5297,-3.5328,-3.5313,-3.5342,-3.5369,-3.5412,-3.5436,-3.5469,-3.5519,-3.5558,-3.5573,-3.5612,-3.5639,-3.5634,-3.5649,-3.5646,-3.565,-3.556,-3.5545,-3.5653,-3.5653,-3.5653,-3.5653,-3.5653,-3.5653,-3.5268,-3.5325,-3.5329,-3.5397,-3.5411,-3.5458,-3.5476,-3.5499,-3.5519,-3.5575,-3.5608,-3.5618,-3.5639,-3.5679,-3.5715,-3.5719,-3.5733,-3.5752,-3.5752,-3.5668,-3.5656,-3.5645,-3.5631,-3.5755,-3.5755,-3.5839,-3.584,-3.584]},{"header":{"parameterUnit":"m.s-1","parameterCategory":1,"la1":30.2991,"la2":30.254,"lo1":-89.0895,"lo2":-89.0444,"dy":0.0017,"dx":0.0017,"nx":28,"ny":28,"refTime":"2024-08-23T09:00:00:Z","depth":0,"parameterNumber":3,"parameterNumberName":"V-component_of_WINDS"},"data":[0,0,0,0,0,0,0,0,0,0,0,0,0,0,0,0,0,0,0,0,0,0,0,0,0,0,0,0,0,0,0,0,0,0,0,0,0,0,0,0,0,0,0,0,0,0,0,0,0,0,0,0,0,0,0,0,0,0,1.5715,1.5715,0,1.5738,1.5738,1.5738,1.5764,1.5764,1.5765,1.5765,1.5786,1.5786,1.5786,0,0,0,0,0,0,0,0,0,0,0,0,0,1.5694,1.5694,1.5715,1.5715,1.5716,1.5738,1.5738,1.5738,1.5764,1.5764,1.5765,1.5765,1.5786,1.5786,1.5786,0,0,0,0,0,0,0,0,0,0,0,0,0,1.5708,1.5694,1.5715,1.5731,1.5733,1.5737,1.5738,1.5738,1.5764,1.5764,1.5765,1.5765,1.5786,1.5786,1.5786,1.5776,0,0,1.5787,1.5787,0,0,0,0,0,0,0,0,1.5707,1.5709,1.5729,1.573,1.5732,1.5749,1.5738,1.5751,1.5764,1.5752,1.5765,1.5766,1.5773,1.5774,1.5777,1.5777,1.5778,1.5787,1.5787,1.5788,1.5788,0,0,0,0,0,0,0,1.5706,1.5708,1.5724,1.5729,1.5731,1.5737,1.574,1.5741,1.5759,1.5753,1.5755,1.5757,1.5774,1.5777,1.5778,1.5778,1.5787,1.5787,1.5788,1.5788,1.5772,1.5772,0,0,0,0,0,0,1.5703,1.5707,1.5723,1.5725,1.5721,1.5737,1.574,1.5743,1.5759,1.5762,1.5757,1.5758,1.5776,1.5777,1.5779,1.5768,1.5788,1.5788,1.5788,1.5773,1.5772,1.5772,0,0,0,0,0,0,1.5703,1.5704,1.5722,1.5717,1.5719,1.5737,1.5739,1.5743,1.5746,1.5762,1.5765,1.5756,1.5777,1.5778,1.5777,1.5769,1.5788,1.5788,1.5774,1.5773,1.5772,1.5748,0,0,0,0,0,0,1.5702,1.5704,1.57,1.5716,1.572,1.5721,1.5739,1.5743,1.5746,1.5749,1.5762,1.5765,1.5777,1.5776,1.5777,1.577,1.5788,1.5774,1.5773,1.5772,1.5749,1.5746,1.5743,0,0,0,0,0,1.5701,1.5692,1.57,1.5702,1.5716,1.572,1.5722,1.5737,1.5746,1.5742,1.5753,1.5765,1.577,1.5776,1.5777,1.577,1.5775,1.5774,1.5772,1.575,1.5747,1.5743,0,0,0,0,0,0,1.5674,1.5694,1.5703,1.5699,1.5708,1.5724,1.572,1.5732,1.5737,1.5739,1.5757,1.576,1.5756,1.5763,1.5769,1.5762,1.5774,1.5773,1.5757,1.5754,1.5751,1.5749,1.5789,0,0,0,0,0,1.5667,1.567,1.5688,1.5682,1.5686,1.5703,1.5705,1.5716,1.5725,1.5729,1.5739,1.5747,1.5751,1.5753,1.5757,1.5751,1.5754,1.5746,1.5743,1.5741,1.5739,1.5737,1.5734,1.5767,1.5767,1.5767,0,0,1.5654,1.5666,1.5666,1.5677,1.5685,1.5687,1.5705,1.5706,1.5708,1.5728,1.5728,1.5736,1.5747,1.5743,1.5742,1.5748,1.5731,1.5739,1.5737,1.5737,1.5736,1.5732,1.573,1.5767,1.5767,1.5767,0,0,1.5631,1.564,1.5637,1.5644,1.5657,1.5668,1.5667,1.5682,1.5689,1.5689,1.5705,1.5707,1.5713,1.572,1.5724,1.5705,1.5716,1.5706,1.569,1.5688,1.5685,1.5683,1.5676,1.5674,1.5704,1.5704,1.5704,0,1.5612,1.5616,1.5633,1.5634,1.5638,1.5658,1.5656,1.5662,1.5675,1.5677,1.5685,1.5694,1.5702,1.57,1.5696,1.5699,1.5698,1.5704,1.5684,1.5682,1.568,1.5674,1.5672,1.5703,1.5703,1.5703,1.5703,0,1.5593,1.5596,1.5592,1.5605,1.5609,1.5608,1.5624,1.5627,1.5637,1.5648,1.5648,1.5659,1.5666,1.5667,1.5677,1.5667,1.5671,1.5681,1.5694,1.5675,1.567,1.5668,1.5701,1.5702,1.5702,1.5702,0,0,1.5552,1.5576,1.5574,1.558,1.5596,1.5598,1.5598,1.5606,1.5607,1.5616,1.5616,1.5621,1.5632,1.5636,1.5647,1.5645,1.563,1.5656,1.5657,1.5651,1.562,1.5612,1.5609,1.5638,1.5638,1.5637,1.562,0,1.5532,1.5533,1.5549,1.5546,1.5549,1.5568,1.5568,1.5578,1.5588,1.5592,1.5602,1.5606,1.5619,1.5622,1.5621,1.5632,1.5624,1.5634,1.5638,1.5638,1.5635,1.5607,1.5598,1.5581,1.5617,1.5617,1.5617,0,1.5507,1.5516,1.5513,1.553,1.5531,1.5531,1.554,1.5544,1.5555,1.5562,1.5568,1.5582,1.5583,1.5595,1.5597,1.5603,1.5606,1.5612,1.5612,1.5612,1.5626,1.5606,1.5575,1.5573,1.5614,1.5614,1.5614,0,1.5478,1.5488,1.5488,1.5493,1.5512,1.5512,1.552,1.5532,1.5536,1.5544,1.5547,1.5554,1.5558,1.5564,1.5579,1.5586,1.5579,1.5592,1.5585,1.5584,1.5582,1.5582,1.5551,1.5584,1.5584,1.5584,1.5584,0,1.5453,1.5451,1.5476,1.5475,1.5474,1.5492,1.549,1.5499,1.551,1.5512,1.5529,1.5531,1.5551,1.5554,1.5566,1.5566,1.5567,1.5573,1.5576,1.5572,1.5571,1.5574,1.5575,1.5583,1.5583,1.5584,1.5584,0,1.542,1.5436,1.5438,1.5456,1.5461,1.5459,1.5475,1.5475,1.5487,1.5489,1.5491,1.5509,1.5514,1.553,1.5539,1.5547,1.5543,1.5549,1.554,1.5542,1.5533,1.5534,1.5503,1.55,1.5535,1.5534,1.5534,0,1.5403,1.5402,1.5421,1.5424,1.5431,1.5436,1.544,1.5459,1.5463,1.5476,1.5475,1.5483,1.5489,1.5497,1.5511,1.5518,1.5524,1.5513,1.5525,1.5521,1.5524,1.5524,1.5524,1.551,1.5509,1.5509,1.5508,0,1.5371,1.538,1.5386,1.5395,1.5401,1.5409,1.5418,1.5419,1.544,1.5444,1.545,1.5455,1.5465,1.5472,1.5482,1.549,1.5502,1.5505,1.5503,1.5498,1.5493,1.5496,1.5532,1.5505,1.5505,1.5506,1.5506,1.5506,1.5345,1.5346,1.5359,1.5366,1.5375,1.5383,1.5385,1.5398,1.5404,1.5414,1.5424,1.5429,1.5442,1.5456,1.5463,1.5467,1.5474,1.5472,1.5471,1.5471,1.5469,1.5493,1.5469,1.5469,1.5469,1.547,1.547,0,1.5315,1.5325,1.5331,1.5344,1.5349,1.5362,1.5373,1.5376,1.5381,1.5391,1.5398,1.5406,1.5413,1.5427,1.5436,1.5436,1.5442,1.5438,1.5438,1.5439,1.5462,1.5462,1.5433,1.5433,1.5433,1.5433,1.5433,1.5433,1.5299,1.5301,1.5311,1.5317,1.5327,1.5333,1.5338,1.5346,1.5355,1.5363,1.5369,1.5379,1.5391,1.5401,1.5408,1.5412,1.5414,1.5408,1.5414,1.5434,1.5438,1.5441,1.5442,1.5408,1.5408,1.5391,1.5391,1.539]}]]